Theta_e
317 317 317 317 317 317 317 318 318 319 320 320 320 320 321 321 321 321 322 322 322 322 322 321 322 322 322 322 322 323 321 324 328 325 325 329 337 358 356 365 362 363 371 367 349 347 344 344 341 340 335 334 334 331 336 340 338 338 326 325 318 319 319 323 322 324 324 323 324 324 326 323 321 328 328 334 331 330 329 331 332 336 337 341 343 347 348 349
317 317 316 317 317 317 317 317 318 319 319 319 320 320 320 320 321 321 321 321 321 321 321 321 321 322 322 322 322 322 322 327 326 325 324 340 352 352 359 364 363 367 372 352 343 343 338 335 335 335 331 328 334 327 333 331 335 329 329 323 317 322 323 327 327 328 325 325 326 326 328 323 323 327 325 325 325 327 326 329 331 330 338 343 344 346 347 348
316 317 316 316 316 317 317 317 317 318 319 319 319 319 319 320 320 320 320 320 320 320 320 320 320 321 322 322 322 321 323 325 326 321 326 348 346 354 354 359 365 368 366 341 341 340 333 333 333 333 328 325 328 324 329 326 329 327 329 321 320 326 325 328 329 327 329 330 327 325 327 326 325 327 325 325 324 325 324 325 328 330 335 339 342 344 346 346
316 316 316 316 316 316 316 317 317 318 318 318 318 319 319 319 319 319 319 320 319 320 320 320 320 321 322 322 322 324 326 328 318 322 328 356 354 360 359 353 363 369 355 338 339 338 334 334 333 332 325 323 325 327 325 326 325 328 324 322 324 326 325 326 329 330 330 331 329 328 326 326 323 328 326 325 322 322 326 328 329 330 335 338 342 343 343 345
315 315 315 315 315 316 316 317 317 317 317 317 318 318 318 319 318 319 319 319 319 319 319 320 320 321 322 321 320 325 327 314 315 326 341 348 359 357 358 354 358 351 346 339 337 335 331 330 331 330 324 320 323 323 323 325 329 327 325 330 331 325 324 326 328 330 330 331 331 330 325 325 328 327 327 325 322 320 325 329 331 335 337 340 340 342 342 342
315 315 315 315 315 315 316 316 316 317 317 317 317 318 318 318 317 318 318 318 319 319 319 320 320 321 322 322 323 326 324 305 317 326 352 352 354 361 357 353 356 347 339 337 331 331 327 326 327 324 321 319 321 318 322 324 328 320 326 329 329 329 326 328 328 328 330 329 329 329 330 330 327 324 328 326 324 326 329 331 332 337 340 342 343 342 341 340
314 314 315 315 315 315 316 316 316 316 316 317 317 317 317 317 317 317 317 317 318 318 319 319 320 321 322 321 326 325 316 315 321 332 361 360 354 361 357 354 355 342 336 333 329 325 325 323 323 323 321 320 320 320 322 322 325 323 323 327 328 330 326 328 327 327 328 329 329 332 333 329 328 322 328 324 326 328 331 331 334 337 341 343 341 341 340 341
314 314 314 314 315 315 315 315 315 316 316 316 317 317 316 316 316 316 317 317 318 318 319 319 320 322 322 325 326 322 321 318 324 338 366 359 352 353 354 335 330 336 331 330 328 323 323 320 320 323 321 318 320 320 322 320 322 321 322 327 327 327 328 328 328 327 328 330 333 331 329 329 329 327 328 324 328 327 331 331 334 337 341 340 342 340 341 342
314 314 314 314 314 314 315 315 315 315 316 316 316 316 315 316 316 316 316 317 318 318 319 319 320 322 323 323 319 313 314 323 326 332 338 336 342 340 337 332 331 335 330 326 325 324 321 319 320 323 318 319 322 320 321 319 316 321 324 327 327 327 328 328 327 327 326 330 331 328 327 331 331 332 325 327 329 330 331 330 334 336 336 337 340 341 341 343
313 313 314 314 314 314 314 315 315 315 315 316 315 315 315 315 316 316 317 317 318 319 319 321 322 322 323 325 318 311 320 326 326 327 328 331 334 341 334 337 332 329 326 324 323 321 320 320 320 324 324 321 323 320 321 320 318 324 325 325 326 326 325 326 323 326 326 329 329 326 327 329 332 328 323 329 329 331 331 331 335 335 334 335 339 339 342 343
313 313 314 314 314 314 314 314 315 315 315 315 315 315 315 315 316 316 317 317 318 320 321 322 323 322 322 325 313 311 327 326 329 329 330 330 329 328 330 329 333 329 327 325 322 322 322 322 323 323 322 318 321 319 319 320 324 323 323 325 324 326 326 325 325 325 326 325 328 328 326 329 331 326 326 329 330 330 329 330 332 335 335 336 338 340 344 344
313 313 314 314 313 314 314 314 314 314 315 314 314 314 314 315 315 316 316 318 319 322 323 324 323 324 325 323 316 316 326 326 329 329 330 331 328 327 327 328 329 331 328 324 323 323 323 322 322 320 315 323 315 320 319 323 322 322 322 318 321 323 322 324 322 324 325 325 328 329 326 324 327 323 330 332 332 329 329 330 332 334 336 338 339 340 343 344
313 313 313 314 313 313 314 314 314 314 314 313 314 314 314 314 315 315 317 318 322 323 324 323 324 326 326 317 320 325 328 330 329 329 329 332 332 329 328 328 328 329 330 327 324 325 324 323 322 318 321 320 319 315 321 324 322 321 321 319 318 320 319 324 325 325 323 327 328 329 316 319 324 328 330 333 333 330 328 329 331 333 335 337 340 340 343 345
313 313 313 313 313 314 314 314 314 314 313 313 313 313 313 314 315 316 318 320 324 324 324 324 326 328 326 317 321 324 327 329 329 327 327 329 327 326 326 328 329 329 329 328 328 328 325 325 323 320 323 319 317 325 320 320 322 316 319 320 315 315 315 323 323 324 320 329 328 329 317 319 325 328 331 333 333 331 327 328 329 332 333 335 339 340 342 344
312 313 312 313 313 313 313 314 313 313 313 313 313 313 313 313 315 318 320 323 325 324 324 325 327 328 321 321 328 333 360 331 327 326 328 326 324 323 325 327 326 326 328 328 327 327 327 325 321 317 316 322 321 317 315 316 318 318 313 311 315 314 316 321 323 325 319 327 330 326 319 319 323 327 331 333 333 332 330 329 328 331 332 334 338 341 342 343
312 312 312 312 313 313 313 313 312 313 313 312 312 313 314 315 317 320 324 326 326 324 327 327 329 328 319 313 320 338 329 321 323 327 329 329 327 323 325 325 325 326 326 324 326 326 325 323 317 318 318 320 316 313 313 313 314 317 314 313 312 315 316 318 321 326 325 327 327 326 320 322 321 328 331 334 332 331 331 330 330 330 332 333 336 338 342 344
311 311 312 312 313 312 313 312 312 313 312 312 312 313 315 317 318 321 326 326 325 328 330 331 332 330 312 324 328 321 320 323 330 327 328 328 326 326 324 323 323 323 323 323 324 324 322 319 320 319 319 315 316 314 309 309 311 313 316 313 315 313 315 314 321 324 325 326 322 326 322 319 323 329 331 333 332 331 331 332 331 331 333 336 336 337 341 344
311 311 312 312 313 313 313 312 312 312 311 311 311 312 314 318 317 320 325 326 332 332 330 332 327 324 319 327 316 316 323 323 325 326 326 328 325 325 324 321 323 322 320 319 321 317 320 315 317 311 313 313 314 312 308 305 310 311 313 312 313 316 316 315 315 320 324 325 323 324 322 323 327 329 330 332 332 331 331 332 332 332 332 336 336 337 340 343
311 311 311 312 312 312 312 312 312 311 311 311 313 317 318 319 323 328 328 330 326 324 314 320 319 305 308 315 325 324 321 326 326 326 322 322 324 324 324 325 323 320 315 314 314 315 317 314 314 310 307 309 311 313 311 312 315 314 315 314 315 312 313 314 319 324 323 322 321 323 319 322 325 328 329 330 332 331 331 332 333 333 334 335 337 338 340 343
311 311 312 312 312 312 312 312 312 311 310 310 315 318 322 324 326 326 324 328 322 319 318 317 322 319 319 318 317 324 327 328 321 323 322 322 321 321 321 321 320 319 315 309 313 313 316 308 306 306 309 312 314 315 315 316 317 317 317 316 314 314 315 318 320 324 324 322 320 322 323 323 324 327 329 330 331 331 330 330 330 333 334 335 336 338 339 343
311 312 312 312 311 312 312 312 311 310 309 311 314 317 308 307 304 305 308 310 320 325 321 318 317 316 316 319 320 319 316 319 321 320 321 324 321 320 316 318 316 312 313 313 312 315 314 307 307 310 312 314 315 316 316 316 316 316 315 315 314 315 312 317 319 323 324 320 320 322 322 323 325 328 330 332 330 328 328 329 330 332 334 335 338 339 340 343
311 311 312 311 312 311 311 311 311 309 309 314 315 315 310 312 312 313 309 303 310 313 314 315 317 315 319 318 319 319 317 313 315 317 321 321 319 315 316 314 312 310 314 314 313 310 307 306 309 312 314 315 316 316 317 315 314 315 313 314 313 314 316 319 319 322 323 321 319 323 320 321 324 327 331 332 331 331 331 331 331 332 333 335 337 339 341 341
311 311 311 312 311 311 310 310 309 308 313 318 313 310 311 315 316 315 311 306 304 311 310 311 311 312 313 318 319 319 312 310 309 315 317 320 317 315 316 312 311 312 313 313 308 307 304 307 311 314 314 314 314 316 315 315 315 313 313 312 311 315 313 311 318 321 322 320 319 323 319 321 325 329 329 331 333 334 334 333 332 332 333 334 336 339 340 341
311 312 311 311 311 310 311 309 308 314 321 314 309 311 316 317 315 313 308 303 304 309 313 315 314 313 313 313 318 316 312 312 312 312 320 319 314 317 315 314 311 311 310 311 310 308 307 311 314 314 313 313 312 314 314 312 311 313 314 314 313 314 314 315 316 320 321 323 323 322 320 320 323 323 325 329 332 334 334 333 333 334 334 335 337 339 342 341
311 312 312 311 310 310 308 307 314 312 311 311 313 315 316 317 317 315 307 307 308 309 318 315 317 316 317 322 321 314 314 314 314 317 319 319 316 315 313 318 313 309 311 313 311 309 310 314 314 312 312 313 312 312 313 312 309 312 315 315 315 316 315 316 318 317 314 315 322 319 311 312 321 323 323 326 327 329 334 333 332 334 335 336 336 337 341 342
312 312 312 311 311 309 308 309 313 309 309 310 313 316 318 316 315 315 309 304 299 307 313 308 317 312 322 315 318 316 316 310 317 319 320 320 322 317 316 314 315 308 311 311 311 311 310 315 313 311 311 311 311 311 313 313 310 310 311 316 316 317 316 316 315 316 311 308 317 323 311 310 320 319 322 325 326 326 330 332 333 335 336 336 337 337 340 342
312 312 311 310 310 308 305 305 310 312 309 311 314 316 314 314 322 313 306 302 299 311 308 313 312 314 318 317 317 317 304 309 319 321 320 322 317 322 313 311 314 314 315 314 311 308 313 313 312 312 310 309 309 308 312 314 311 308 316 317 317 316 315 315 315 315 314 318 319 321 319 311 311 316 322 324 325 327 329 330 331 333 336 335 339 339 341 342
312 311 310 310 309 308 307 308 310 310 309 313 315 315 315 317 318 314 303 293 296 315 309 310 315 320 317 318 319 313 315 319 312 317 321 322 320 317 314 312 312 312 313 312 303 312 313 310 310 309 309 308 307 311 314 315 311 311 316 318 316 316 316 315 315 314 315 314 311 314 319 312 311 318 322 322 319 322 324 327 332 334 335 338 340 342 341 344
311 311 310 310 309 307 312 311 312 309 313 315 315 315 314 317 311 306 301 294 310 310 322 311 322 317 318 319 315 316 316 318 312 316 321 322 321 318 310 313 315 314 314 313 308 311 314 313 312 311 309 306 311 313 314 314 310 315 318 318 318 318 316 316 314 313 313 311 307 311 315 309 310 317 319 322 319 320 323 326 328 333 335 336 339 342 342 346
311 311 311 310 309 311 312 315 314 316 316 316 316 317 315 312 309 299 294 290 310 304 313 314 313 310 316 311 312 315 313 315 317 318 319 316 317 319 318 320 315 313 312 314 312 313 315 317 317 312 310 312 312 314 314 314 316 318 316 314 314 315 315 316 315 314 312 306 308 313 315 313 307 314 316 318 318 321 325 328 329 330 332 334 337 339 341 345
311 310 310 309 307 308 308 305 311 316 318 319 317 313 311 309 301 297 291 301 310 310 314 311 310 315 312 310 307 313 313 314 315 316 313 316 314 315 315 312 315 311 311 311 309 312 314 314 311 313 315 314 314 312 315 316 316 315 313 311 312 311 313 313 312 313 304 303 311 315 314 314 305 311 318 322 325 326 325 326 327 329 332 334 338 338 339 343
309 308 309 309 310 313 306 304 313 316 318 316 311 307 304 295 301 293 295 312 299 307 307 308 312 312 311 312 311 311 309 312 315 313 311 310 310 308 309 306 308 303 303 306 305 311 309 310 313 313 316 313 311 309 310 313 314 312 312 311 306 304 306 302 307 302 303 303 310 314 315 310 309 316 321 322 323 325 328 327 326 327 330 334 336 337 341 342
308 307 307 309 313 314 313 313 314 316 316 313 308 306 299 294 291 298 299 305 301 310 308 313 310 311 311 310 309 312 313 309 314 313 313 312 310 309 311 311 312 308 302 307 306 306 306 311 312 312 313 314 312 305 305 306 310 310 308 308 305 301 300 297 302 306 305 309 312 313 315 308 314 317 322 322 324 325 329 329 327 326 327 329 334 338 340 340
307 307 309 314 315 315 316 321 320 319 314 313 306 300 297 291 292 305 302 304 305 311 311 309 311 311 311 307 309 312 308 312 312 312 313 310 309 307 308 311 313 309 308 309 304 306 301 301 306 310 306 314 311 309 309 308 309 308 312 310 308 307 303 299 302 299 301 305 309 313 309 307 307 312 323 324 325 327 327 327 329 329 328 330 330 334 341 341
306 308 314 316 316 316 318 319 321 320 316 309 300 296 290 291 298 298 301 304 307 309 308 312 309 308 307 309 311 311 311 307 312 312 310 309 306 307 307 308 311 312 310 304 309 308 305 305 309 313 313 313 310 312 313 310 309 311 312 313 309 307 312 304 308 306 306 305 305 310 308 313 313 323 324 327 325 325 326 326 326 326 327 328 328 331 338 338
307 313 314 313 313 317 321 320 320 320 313 304 297 292 291 296 296 302 302 309 309 306 307 309 309 306 305 306 309 309 313 309 310 309 309 310 311 308 311 311 309 311 309 304 309 304 307 304 312 312 314 312 311 313 311 313 302 309 309 305 309 316 313 308 310 311 310 306 303 312 311 314 319 319 321 323 322 323 325 325 324 325 326 329 328 328 335 338
309 312 309 312 313 315 320 320 320 317 311 303 295 291 297 299 303 304 307 306 308 309 307 302 304 303 303 303 305 307 309 310 309 308 305 311 307 311 310 311 314 312 313 311 307 313 306 305 312 311 308 313 315 314 313 312 313 311 305 308 315 318 316 311 302 306 304 300 304 309 306 309 309 307 320 320 320 321 323 324 323 325 326 324 326 328 335 339
308 310 311 311 315 319 321 322 319 316 309 300 294 297 302 298 304 304 307 307 308 308 305 303 304 307 303 304 304 307 309 305 306 308 305 309 305 314 311 311 314 313 313 315 309 310 311 304 309 312 312 313 315 314 310 312 314 309 309 316 307 304 303 309 308 299 299 299 302 306 309 309 310 311 317 318 318 320 322 324 323 323 324 325 326 327 332 340
310 309 302 314 320 321 320 322 317 314 307 298 296 294 300 301 305 304 306 306 306 306 304 305 303 306 305 303 305 308 308 303 307 305 303 307 304 312 311 313 312 314 314 314 309 311 312 303 306 313 311 313 313 310 303 306 311 312 313 311 315 311 308 305 307 308 306 300 301 302 306 304 314 314 317 318 320 321 321 322 322 322 323 324 326 327 329 337
307 301 300 318 320 320 321 316 310 307 302 297 298 298 303 301 303 305 306 305 303 303 304 305 306 303 305 305 307 304 307 307 306 306 306 308 306 313 311 315 312 313 314 314 311 313 309 312 301 309 313 312 305 308 305 307 304 305 305 305 310 310 313 312 311 307 305 302 301 301 300 306 314 319 318 319 321 322 322 322 322 322 324 325 326 327 330 335
306 301 301 317 318 319 317 308 302 299 298 302 303 302 304 301 304 305 307 307 305 307 304 304 304 303 305 305 305 308 306 306 307 305 306 307 307 305 313 314 314 312 314 313 311 312 308 309 303 307 306 305 306 312 310 310 310 307 305 304 307 308 305 302 302 311 308 305 300 301 300 310 316 320 321 320 322 322 323 323 323 324 324 330 327 328 331 331
302 296 301 315 316 315 308 298 298 301 299 297 298 302 301 308 304 305 306 307 306 303 307 303 304 303 304 305 306 307 306 306 307 306 308 305 309 310 313 316 315 315 312 309 309 313 312 311 308 304 306 306 309 312 314 313 312 311 309 306 308 309 310 306 298 304 308 308 310 308 304 307 319 322 322 322 323 322 323 323 323 323 326 326 327 326 330 335
300 299 310 312 313 308 301 296 299 299 297 300 304 303 305 304 304 305 304 306 304 305 303 302 302 301 303 303 304 304 307 305 307 306 308 309 310 312 314 315 316 315 315 312 313 313 324 308 305 306 310 311 312 313 314 313 311 309 310 310 308 305 308 308 308 310 307 308 306 305 303 307 318 325 324 323 326 323 325 324 325 324 324 325 327 328 334 338
301 300 303 311 312 310 298 291 292 295 298 301 301 301 304 303 303 303 303 305 303 303 301 301 303 304 302 305 303 302 306 301 306 307 306 310 308 314 314 314 315 313 313 313 310 314 307 309 307 303 303 304 307 310 309 312 310 307 306 309 310 309 309 311 312 313 306 307 308 304 300 306 317 323 324 323 323 322 323 323 325 324 324 325 328 336 337 341
299 302 303 305 310 307 297 298 296 296 297 300 301 300 301 301 303 304 304 303 306 304 303 301 303 304 303 304 303 304 305 304 303 307 308 308 308 313 313 314 314 313 315 322 327 318 310 309 306 300 298 295 295 296 298 302 304 307 308 308 310 309 308 306 303 307 301 309 311 305 306 312 318 323 321 322 322 324 324 324 324 325 328 325 326 339 345 343
296 291 299 302 305 304 302 304 301 299 298 298 298 300 301 299 303 305 304 303 305 305 305 304 305 305 302 302 301 301 302 305 303 304 305 305 308 310 312 312 311 313 323 323 323 318 311 312 310 307 305 303 304 309 311 310 307 304 306 306 307 309 310 309 307 304 302 305 307 308 311 311 314 316 319 319 320 321 321 324 323 324 325 326 334 336 349 352
299 293 295 294 301 300 299 301 300 299 296 300 294 298 296 299 301 302 307 302 306 304 303 304 303 301 301 301 300 300 302 302 305 304 304 305 307 308 310 310 310 314 323 319 317 314 313 308 310 311 310 310 311 310 311 310 307 307 306 306 307 307 308 307 305 303 311 306 301 309 316 310 311 316 318 320 320 322 323 324 323 324 326 327 328 339 352 354
291 296 298 301 293 292 294 295 297 295 297 297 293 297 295 295 297 296 301 304 305 306 300 302 303 304 303 301 301 299 301 301 303 301 304 305 305 308 307 309 309 318 316 313 317 313 310 306 310 310 309 310 311 311 312 310 310 309 308 307 306 307 307 305 307 309 311 305 302 311 316 312 313 315 318 320 322 323 322 323 324 325 324 328 335 337 343 348
299 298 298 301 294 296 295 296 296 294 292 293 292 293 293 294 294 297 298 298 299 300 302 297 299 301 302 304 304 300 302 298 298 304 304 303 304 306 305 307 309 313 312 312 314 317 312 308 310 311 309 310 310 310 311 309 309 309 309 309 308 308 307 307 307 308 308 310 311 311 314 313 314 316 317 319 323 323 323 325 325 325 324 330 328 327 331 346
295 295 295 299 298 296 297 296 295 293 290 292 288 291 293 294 293 297 299 297 294 296 302 299 300 300 300 301 304 302 303 304 303 301 305 305 304 306 306 308 309 311 312 310 312 316 310 307 312 311 308 307 309 311 311 310 309 308 309 310 309 309 309 308 307 307 309 308 309 310 312 311 317 320 320 322 323 323 324 322 322 326 325 324 325 324 325 326
302 303 302 295 291 294 296 296 295 293 291 293 290 291 292 292 292 295 295 299 296 295 298 296 298 299 302 302 304 303 307 308 307 307 309 306 302 307 305 307 310 308 309 308 310 312 312 309 313 310 305 306 309 309 309 309 308 308 307 308 309 308 307 308 307 309 307 307 309 308 307 308 314 318 321 322 322 321 320 323 324 324 324 326 325 325 327 330
303 304 304 299 291 296 293 296 296 294 290 294 294 294 294 294 296 298 294 299 299 299 298 298 298 297 298 302 303 305 306 306 307 310 312 312 311 310 310 310 310 307 307 307 311 308 311 309 307 308 304 304 309 310 309 309 308 304 305 307 309 310 310 311 311 312 310 309 306 304 306 312 316 317 317 319 320 321 321 321 322 327 332 326 326 327 327 326
Wind_Speed
21 22 21 21 21 21 21 21 21 21 21 22 22 22 22 22 22 22 22 22 22 21 21 22 21 21 21 20 19 18 18 12 14 13 14 12 5 7 6 9 14 15 15 11 12 13 13 13 13 13 10 10 9 11 9 10 8 5 2 4 2 6 2 6 4 4 8 7 10 9 8 10 9 7 8 7 8 10 11 10 8 7 8 9 16 18 19 19
22 22 22 22 22 22 22 21 21 21 22 23 23 21 23 22 22 22 22 22 22 22 21 22 21 21 21 20 18 16 16 12 15 15 17 8 8 5 4 9 13 15 13 13 15 14 13 13 13 12 11 10 9 10 5 6 6 8 7 3 9 12 6 1 5 6 7 8 8 9 7 8 9 8 9 8 10 12 11 10 11 9 11 14 19 20 19 20
22 21 23 22 23 23 22 22 22 23 22 24 23 23 23 22 22 22 22 22 23 22 22 21 21 20 20 19 17 15 13 14 14 19 2 10 10 4 6 9 13 15 17 14 14 13 13 10 11 11 10 10 9 9 7 4 6 6 7 4 9 11 10 4 6 6 5 11 8 8 7 7 10 7 8 7 10 11 10 11 12 11 14 16 19 21 20 19
23 22 23 23 22 22 23 23 23 23 23 24 24 24 24 23 23 23 22 22 22 23 22 21 21 20 19 19 16 15 11 13 15 8 10 8 6 4 7 10 14 15 17 15 11 13 12 10 10 11 11 11 8 10 7 5 6 6 9 6 13 8 1 8 4 9 6 8 9 7 5 8 9 9 8 9 10 9 8 11 12 14 15 18 20 21 20 19
24 22 23 23 24 23 23 23 24 24 23 24 25 24 23 24 24 22 23 23 23 22 22 22 21 20 18 17 17 12 11 15 5 9 13 7 7 3 7 11 12 17 18 14 12 12 12 12 10 11 11 10 11 9 9 8 6 8 8 20 20 3 3 6 1 7 6 6 9 9 8 10 8 8 8 9 5 7 8 13 12 15 16 19 21 21 20 20
24 23 23 24 24 23 23 23 24 24 23 23 25 24 25 24 24 23 24 23 22 22 22 22 20 19 18 16 14 11 8 5 7 4 10 10 7 6 7 10 12 16 16 16 13 12 13 13 12 11 10 12 11 11 8 10 7 9 5 9 4 3 4 8 0 5 6 8 8 9 5 9 9 9 7 8 6 8 7 14 11 15 17 18 19 20 20 20
24 24 24 24 25 25 25 25 24 24 23 23 24 25 24 25 24 23 23 22 22 23 23 21 20 20 16 17 12 9 11 13 17 10 12 10 9 7 8 9 11 14 15 15 14 12 14 14 14 13 12 13 14 12 12 10 11 9 7 4 6 3 4 5 1 5 7 5 8 7 10 9 9 9 9 9 5 3 9 13 13 15 17 18 20 20 20 20
24 25 25 25 24 25 26 26 25 24 23 23 25 25 25 25 24 24 23 23 22 23 21 21 18 16 14 10 8 9 11 12 2 14 12 12 10 11 11 9 12 13 15 15 13 15 13 16 15 13 13 12 9 13 10 13 10 10 10 6 5 6 6 5 5 3 6 8 8 9 11 9 8 7 9 10 8 8 9 12 15 16 17 17 19 19 19 19
24 25 25 25 25 25 26 28 26 26 25 25 26 25 26 25 24 24 25 24 23 22 21 18 15 13 9 7 8 12 12 5 3 9 12 9 8 11 12 9 13 12 12 13 14 14 13 14 16 14 12 15 13 14 12 11 10 11 8 8 8 7 7 8 8 7 6 6 9 11 11 10 9 10 9 9 9 7 11 12 15 17 18 18 19 19 18 18
25 24 24 24 26 25 27 28 26 26 26 27 27 27 27 24 24 24 25 24 23 23 19 16 12 9 8 7 9 11 2 3 3 3 4 5 5 9 11 8 13 12 12 13 13 15 16 11 15 14 16 16 13 15 13 12 9 7 11 10 10 7 10 10 5 5 8 8 10 12 12 11 10 8 8 9 10 10 13 13 14 17 18 18 17 17 18 19
24 24 24 25 25 27 28 27 26 26 28 27 28 29 27 26 25 26 25 24 23 20 16 12 8 7 8 9 10 11 5 10 2 4 5 6 7 9 10 8 9 11 13 12 14 15 15 15 12 9 11 12 11 13 12 10 12 5 4 10 12 11 9 6 6 5 8 10 12 10 11 10 12 8 5 11 11 12 13 14 15 16 16 15 18 17 16 16
25 25 26 27 27 26 27 27 27 27 26 27 28 27 27 27 27 25 25 24 21 16 12 8 9 6 9 10 12 14 6 8 6 7 7 8 10 10 10 7 8 11 12 13 14 13 14 14 14 12 10 10 15 11 13 13 11 10 8 10 9 12 12 10 10 9 9 9 11 10 10 11 12 10 9 14 13 12 14 14 15 15 15 15 16 16 15 15
24 25 26 25 26 27 25 25 26 27 27 27 27 27 27 27 26 26 24 21 14 11 8 8 8 7 7 11 15 20 15 11 12 7 8 7 9 10 10 10 11 11 12 13 12 13 13 13 14 16 17 12 11 12 6 8 15 11 11 10 10 11 10 10 7 9 12 9 12 11 10 8 12 10 8 16 14 14 14 14 14 13 15 15 15 15 15 15
26 26 25 26 25 25 26 26 27 26 27 28 28 28 28 28 27 25 22 19 16 13 9 8 8 7 9 11 8 9 5 8 10 10 10 10 11 12 12 12 11 11 11 13 12 10 13 12 14 17 13 16 10 11 12 10 9 11 12 11 10 6 9 11 9 12 13 12 12 12 8 8 12 13 12 16 15 16 15 15 15 14 14 14 15 15 16 16
26 26 26 25 26 26 26 26 25 26 27 28 28 28 29 28 26 23 19 17 11 5 8 7 8 6 9 12 16 10 8 6 10 9 8 11 11 11 12 12 13 12 11 11 10 10 9 12 15 14 12 13 16 16 10 10 11 11 11 12 11 10 7 11 12 14 13 13 14 12 10 4 13 15 15 15 15 16 15 16 16 15 14 15 15 16 16 16
23 24 25 27 27 27 26 26 26 27 27 28 28 29 29 25 22 18 14 13 3 9 8 7 9 9 11 14 2 8 8 10 10 9 7 8 8 11 10 12 10 11 9 9 9 8 9 12 13 11 11 14 17 12 10 10 12 12 12 12 12 11 7 9 12 12 14 12 12 15 4 13 9 14 16 15 15 16 14 15 15 16 16 15 15 14 14 15
22 23 25 26 27 27 28 26 27 28 28 28 29 30 26 20 15 12 13 8 6 7 7 4 1 7 7 5 3 8 9 11 6 10 9 6 4 7 9 11 11 12 10 9 10 7 10 11 9 10 13 13 12 13 13 13 12 12 12 12 8 11 10 9 12 12 14 11 12 15 10 4 11 13 14 14 15 16 15 15 16 15 14 15 14 15 15 15
25 23 24 25 28 28 27 27 27 28 29 29 28 27 22 19 13 9 7 7 6 7 8 7 7 7 16 15 12 11 10 10 9 10 8 8 7 3 8 11 10 12 11 11 11 12 12 11 12 12 12 15 15 16 16 14 13 13 13 12 10 15 15 10 11 13 14 14 13 14 12 19 17 13 13 14 15 15 15 14 15 16 16 15 15 15 16 16
25 25 24 25 27 28 26 26 27 26 27 30 29 26 16 10 7 7 6 6 7 6 6 9 9 10 3 3 8 8 5 11 9 9 9 8 10 8 9 10 10 13 12 12 11 15 12 11 12 14 17 17 18 17 17 17 16 16 12 11 11 11 11 11 12 13 15 14 13 14 12 12 10 11 13 12 14 15 14 14 14 16 15 16 15 15 15 16
25 24 24 26 27 28 27 27 25 25 25 23 16 11 5 6 5 5 7 10 14 13 16 5 15 14 21 16 7 6 2 8 11 12 8 7 6 11 12 12 12 13 12 12 14 17 12 15 16 18 17 18 21 20 19 20 18 16 15 15 14 12 11 10 12 13 14 14 14 13 12 12 12 13 12 12 12 13 14 15 14 15 15 16 16 16 16 17
24 24 26 26 28 27 29 26 27 25 24 16 15 10 7 11 10 5 8 12 16 19 19 20 18 18 18 14 9 6 12 14 14 13 13 7 12 10 13 13 13 14 14 15 13 12 14 16 18 19 21 20 20 21 21 20 21 18 14 15 13 14 12 14 14 16 14 13 11 13 13 14 13 13 13 12 13 14 14 14 14 15 16 15 17 17 17 16
24 24 25 27 27 28 28 30 29 27 25 11 8 7 9 6 7 8 9 13 12 16 19 22 20 21 18 19 16 13 8 11 14 15 11 12 13 13 13 15 15 14 14 15 13 13 16 18 18 20 19 20 19 22 23 22 21 19 16 14 13 12 14 9 14 15 13 12 9 13 15 13 14 13 14 14 14 12 13 13 14 14 15 14 16 17 17 16
24 23 26 26 27 28 30 31 31 29 11 6 6 9 6 6 6 7 9 13 20 21 23 23 22 22 20 16 15 14 17 18 15 14 14 14 14 16 13 15 15 15 15 18 16 15 15 17 20 19 18 21 21 21 23 22 20 16 16 14 12 12 15 7 7 13 11 10 10 11 13 11 13 13 13 14 15 13 13 14 14 14 15 16 17 17 17 18
25 24 24 25 27 28 30 31 32 18 8 10 11 9 5 4 7 9 10 9 13 15 16 18 19 18 18 16 13 17 18 15 15 16 16 15 16 16 14 17 17 16 16 19 21 16 16 14 18 19 20 21 23 23 22 18 17 19 19 14 13 15 15 12 10 12 13 14 13 11 10 10 12 13 13 13 15 15 15 14 14 14 15 15 16 17 18 19
25 24 24 24 26 29 32 33 13 5 14 14 8 1 1 4 6 9 10 9 11 15 14 17 13 13 13 10 4 14 15 14 16 14 15 19 19 14 15 12 13 16 17 19 20 19 18 16 15 21 21 21 23 21 21 18 17 17 21 19 17 16 15 16 13 14 10 12 14 13 10 12 13 15 15 13 14 15 13 15 15 14 14 14 17 18 19 19
26 25 23 23 24 26 35 15 4 16 16 9 6 2 2 6 7 7 8 6 11 6 10 10 11 10 9 12 11 12 11 14 16 12 13 18 17 16 11 13 11 15 19 19 16 13 15 14 17 21 22 22 23 20 21 22 17 17 17 21 22 18 17 16 14 12 12 13 13 16 14 9 10 15 15 14 15 16 14 15 15 13 13 15 16 16 18 19
26 26 23 22 22 21 16 6 15 17 11 5 4 4 6 7 5 10 7 7 11 8 10 9 11 5 7 12 14 13 11 12 12 14 14 17 19 15 15 13 13 11 12 11 10 14 14 17 20 20 24 23 20 20 22 22 18 16 16 20 22 22 19 18 14 14 11 11 11 14 13 11 10 12 15 16 15 15 16 16 15 14 16 17 16 18 18 19
27 26 23 21 23 16 11 13 14 11 9 7 7 8 9 6 7 7 6 6 5 8 8 7 2 6 7 13 16 16 2 12 13 15 16 17 18 17 17 16 15 16 15 13 17 9 17 20 21 20 19 19 21 21 20 21 17 15 17 19 20 22 20 21 17 12 12 12 13 13 17 13 11 11 14 16 18 18 16 15 15 15 16 17 15 13 18 21
25 26 25 23 23 28 18 9 10 13 10 11 9 10 6 7 8 6 6 10 2 4 5 8 1 8 6 15 17 18 8 12 9 15 15 15 19 13 15 18 15 15 17 18 14 12 13 18 21 18 17 18 19 20 19 20 18 18 18 16 16 16 20 21 17 14 13 14 15 15 16 13 12 11 12 15 16 16 17 16 14 13 11 9 12 17 21 20
25 27 27 22 20 12 5 9 13 15 12 10 10 8 9 9 7 7 8 11 3 7 11 7 11 13 13 15 14 16 16 10 6 11 13 13 18 19 12 11 15 14 14 17 18 15 11 14 17 15 19 18 15 16 20 24 23 15 19 19 21 18 15 17 16 15 14 17 16 20 21 16 12 13 15 13 13 14 12 12 12 13 14 14 16 18 19 19
24 26 25 22 12 9 11 10 10 7 6 6 7 11 9 7 8 8 14 4 3 4 10 11 12 15 18 17 13 16 16 13 13 12 13 13 15 18 13 13 13 12 12 14 17 18 17 13 16 14 16 14 16 19 22 22 21 21 15 17 16 14 12 13 14 15 16 16 17 21 20 21 17 12 14 15 14 17 15 13 15 17 19 20 21 19 17 15
24 27 27 19 16 11 10 9 6 5 3 6 10 8 7 9 9 14 10 6 9 10 12 12 14 14 19 18 14 17 15 15 13 15 14 13 14 16 17 14 13 14 15 15 14 15 19 16 12 16 14 19 18 18 17 20 21 20 17 16 18 14 11 14 14 19 18 16 14 18 20 18 19 14 11 13 16 16 17 15 16 17 19 19 18 19 18 18
25 26 31 21 17 10 15 16 13 10 6 8 8 7 10 9 15 14 14 7 2 6 10 11 15 17 17 18 17 15 17 15 16 15 16 16 15 17 20 18 16 15 12 14 14 15 14 19 19 15 16 19 20 18 16 19 19 21 19 19 20 16 16 14 15 12 14 18 19 17 15 17 12 14 19 17 15 14 16 18 18 18 17 20 19 17 15 16
26 28 18 14 12 12 9 10 8 8 9 6 8 8 11 14 17 5 17 15 8 3 5 8 14 16 18 15 15 14 14 15 16 15 18 14 16 15 17 22 20 19 15 11 15 14 13 17 22 20 14 17 21 21 18 14 18 20 19 21 18 15 14 16 15 19 18 12 15 21 17 12 14 11 18 23 18 12 12 15 17 17 15 13 16 18 21 18
30 28 19 15 13 13 13 10 8 7 7 8 9 12 16 19 10 13 12 12 15 13 9 10 11 15 16 16 14 17 15 12 16 15 17 16 15 15 17 18 24 19 15 14 12 11 20 13 12 22 14 18 22 23 21 20 16 18 17 17 18 19 14 17 12 14 14 15 16 15 15 10 14 7 10 9 13 18 15 15 17 17 16 14 11 12 14 14
25 10 12 11 10 5 6 6 7 8 9 9 11 14 21 14 11 12 9 9 12 13 12 9 11 14 13 13 15 19 21 14 17 16 14 18 17 17 18 15 19 23 15 15 8 12 12 14 13 19 23 19 21 20 21 20 16 15 16 21 21 16 18 16 16 18 18 16 17 11 13 15 15 16 13 13 12 13 17 18 19 19 17 12 10 10 15 14
12 15 10 10 10 7 6 5 6 8 9 11 14 19 15 13 18 12 9 13 9 13 15 14 13 14 13 14 13 19 14 17 14 14 13 16 17 20 18 18 18 23 23 14 12 10 10 10 14 15 24 20 16 19 21 23 18 12 18 20 20 21 19 15 16 13 15 17 14 17 19 17 16 13 13 18 16 16 15 16 18 16 16 14 12 12 14 19
15 13 16 19 13 6 6 5 7 8 9 12 19 21 10 17 13 19 15 13 10 12 13 14 10 15 15 14 14 17 19 15 15 14 13 15 12 17 19 16 21 20 24 21 14 10 11 10 13 19 17 19 18 17 20 24 25 22 14 15 19 18 22 18 13 18 18 17 13 16 20 18 16 13 10 16 19 18 19 19 19 18 17 16 15 15 12 11
14 13 12 3 8 5 5 5 7 7 10 13 16 17 16 18 15 15 17 19 15 12 14 15 12 13 15 14 15 16 18 16 15 16 14 11 13 15 20 15 17 22 21 23 17 10 11 12 8 14 17 16 17 15 17 18 24 28 24 17 18 16 17 18 16 14 13 16 16 16 19 15 13 14 14 14 19 20 21 23 20 15 18 18 13 13 14 12
9 8 8 9 5 6 4 7 7 10 12 17 15 15 10 15 19 23 20 17 16 15 13 15 18 15 14 17 17 14 16 21 17 15 17 9 16 12 18 19 14 21 22 23 18 15 9 10 11 10 18 14 16 16 20 19 20 21 22 21 15 15 14 16 18 19 15 16 15 12 16 14 15 13 14 16 16 15 17 19 15 17 20 17 14 11 10 14
9 8 8 7 5 2 5 8 10 12 14 14 18 18 17 15 14 16 23 26 18 14 16 15 13 13 15 12 17 17 13 17 17 15 14 15 17 10 9 13 16 16 20 21 20 15 12 11 12 10 16 16 17 18 21 20 19 18 20 22 20 16 18 21 21 16 19 17 10 14 17 12 12 13 14 14 13 13 15 15 16 17 14 8 8 14 13 12
10 8 2 8 1 4 7 11 10 11 12 16 15 13 15 14 18 19 17 18 25 17 14 17 19 18 16 17 12 13 15 11 13 16 14 14 18 13 13 19 16 17 16 16 16 16 13 7 11 13 12 16 17 18 20 21 20 20 19 20 23 20 15 16 15 16 19 19 18 18 16 14 11 12 13 14 14 17 14 13 11 12 12 12 14 15 16 11
9 11 14 19 17 15 12 13 12 13 15 14 17 22 21 18 16 16 19 18 16 16 18 18 19 19 19 16 16 17 16 13 13 15 12 14 11 18 4 14 14 17 16 14 19 16 13 12 12 13 12 12 17 17 18 21 22 21 21 21 22 24 22 17 16 15 17 18 19 17 19 15 13 9 6 7 8 15 16 16 16 15 16 17 15 4 9 8
11 12 13 12 12 10 12 14 13 14 14 18 21 21 18 18 19 18 17 17 15 13 16 15 18 22 18 19 18 16 16 14 15 17 15 14 13 12 11 14 8 13 13 11 14 15 13 14 13 11 11 11 13 14 16 18 19 16 17 20 23 22 29 24 16 15 19 24 22 17 20 15 14 15 13 11 13 15 15 15 15 18 18 12 10 9 5 5
12 12 14 13 10 10 13 11 14 14 15 17 18 21 21 19 17 22 19 17 17 18 16 17 17 15 17 18 19 19 18 18 10 16 17 13 12 14 15 12 15 14 18 2 7 3 17 13 15 15 16 17 17 17 18 18 19 16 19 22 23 27 30 26 22 17 16 13 20 19 19 14 13 16 14 10 12 13 11 15 18 18 12 10 13 8 9 8
8 11 8 11 8 11 12 12 14 14 14 15 17 18 19 18 16 18 20 21 19 18 19 18 17 19 20 20 21 21 22 20 18 9 14 15 13 9 11 12 9 16 3 9 4 5 8 12 16 17 14 14 14 11 11 13 13 17 20 24 25 26 26 23 16 20 20 11 17 16 20 16 17 18 17 18 14 14 13 13 14 14 15 14 10 5 9 9
7 10 9 9 8 9 10 8 10 9 9 13 10 9 15 16 14 14 18 17 19 22 18 18 17 18 18 22 20 21 23 21 23 22 16 14 16 13 15 18 16 19 7 7 2 8 9 13 19 21 22 17 15 15 13 16 18 19 22 22 25 26 25 25 21 22 18 16 17 12 14 23 21 19 17 17 18 17 13 13 13 10 7 9 11 8 10 11
7 8 11 7 9 7 11 8 7 9 13 14 11 13 12 12 12 12 15 17 19 17 16 16 20 21 19 18 19 18 18 22 20 20 21 18 13 15 17 19 17 12 5 11 9 11 12 13 16 20 22 23 23 18 16 16 17 17 19 20 21 23 25 27 25 25 23 20 20 16 16 20 21 26 23 19 17 16 17 18 16 16 16 12 8 11 13 13
11 9 12 10 11 10 13 12 15 12 13 13 10 13 14 13 14 13 12 14 14 14 17 17 20 22 21 19 18 17 17 17 20 19 16 17 19 13 14 16 17 16 15 13 14 11 11 13 15 16 18 20 23 25 20 21 20 20 20 20 21 22 25 27 25 24 27 22 21 21 18 22 21 23 24 23 18 18 18 17 16 15 15 15 15 15 16 14
7 7 7 7 11 12 13 13 12 10 10 10 10 10 13 13 15 14 14 10 10 15 17 17 17 13 16 21 22 18 19 18 15 18 18 17 14 17 14 13 11 18 16 17 13 15 13 11 13 16 15 17 20 22 24 23 23 22 22 22 24 23 23 25 26 26 25 27 28 24 21 21 18 19 22 22 22 21 17 18 20 15 17 18 17 18 17 15
10 10 7 10 12 10 12 13 13 12 10 9 9 12 13 15 16 15 15 12 14 14 14 15 16 17 16 18 17 26 20 17 18 18 13 17 17 13 15 10 16 12 20 17 16 14 16 12 13 14 14 15 18 21 24 24 25 26 24 23 24 24 22 21 21 22 24 23 21 23 22 19 17 19 17 18 20 26 28 23 16 16 17 17 17 17 15 12
10 10 8 8 11 10 12 12 14 13 14 12 12 12 11 15 15 8 10 11 15 17 12 12 15 13 12 14 12 12 17 19 18 15 15 14 11 17 19 16 16 17 11 16 15 15 13 13 13 13 15 16 15 17 18 19 18 20 23 24 25 24 23 24 22 21 22 23 21 20 20 17 13 14 20 19 21 23 26 24 24 17 15 17 16 15 13 14
Wind_Direction
350 349 348 346 344 343 343 342 340 337 336 337 335 333 332 332 331 329 330 328 328 328 327 327 326 322 322 323 319 318 316 302 299 267 253 257 68 121 102 131 158 174 187 204 205 196 201 214 213 212 221 222 217 233 230 204 252 239 142 317 300 285 247 101 112 114 96 124 120 145 161 124 137 152 113 150 145 136 147 137 136 97 137 131 131 133 137 138
349 348 346 345 343 341 340 340 339 337 336 335 334 332 332 331 329 328 327 327 327 326 327 326 324 322 320 319 318 317 316 292 279 281 260 108 84 82 135 168 169 176 184 207 207 199 207 208 211 205 220 227 212 245 189 209 197 239 106 135 272 249 88 94 114 105 137 119 140 139 162 138 121 159 141 172 155 136 168 133 150 137 122 126 135 137 144 146
348 347 345 344 343 341 339 338 338 337 335 334 333 331 331 329 328 328 325 325 325 324 323 326 322 320 318 317 313 311 303 293 282 272 156 74 91 252 173 186 180 178 194 204 207 208 217 208 211 205 223 248 201 242 167 215 203 225 116 219 259 281 110 236 130 96 110 122 139 144 158 149 126 157 165 178 151 150 167 156 154 151 136 145 143 148 148 154
348 346 345 343 342 340 338 336 336 336 334 333 331 331 330 328 327 326 324 322 322 322 322 321 321 319 316 313 314 310 287 284 284 104 106 112 154 225 188 179 191 192 210 226 213 215 222 226 213 214 234 232 239 235 212 192 232 184 172 97 263 246 182 131 216 130 118 133 137 145 147 145 161 136 194 145 153 166 171 155 167 151 155 152 149 153 157 156
347 346 345 343 341 339 337 336 334 333 333 332 330 330 329 327 326 324 323 322 321 319 319 319 318 316 316 309 304 291 294 285 96 103 118 141 178 211 156 188 189 200 211 224 220 223 225 223 215 220 237 239 244 240 228 243 216 297 263 165 208 161 312 72 277 103 119 124 140 151 183 141 152 144 192 166 175 162 182 149 174 153 160 153 158 155 160 162
347 345 344 342 340 338 336 335 333 332 331 330 329 329 327 326 324 322 322 319 318 317 317 316 314 314 313 312 302 278 278 303 27 117 134 148 158 145 170 181 193 212 206 226 222 211 222 222 220 218 222 243 244 240 203 240 188 249 203 280 328 12 324 89 291 156 128 155 162 164 161 126 193 147 189 144 208 134 176 142 158 147 158 159 156 160 164 165
346 345 343 341 340 338 336 334 332 331 329 328 328 327 326 325 323 320 318 318 314 316 315 313 313 311 313 301 273 266 268 274 275 131 149 159 134 150 157 182 190 214 209 220 217 215 214 224 218 220 229 235 241 250 256 228 202 241 267 239 203 238 202 209 217 119 179 150 164 164 167 167 178 159 180 167 158 75 141 135 148 148 157 159 163 162 168 167
345 344 343 341 339 338 337 334 332 330 328 327 327 326 326 323 321 318 316 314 314 312 312 310 309 308 314 296 264 247 251 266 282 121 142 132 149 150 165 185 185 203 207 218 211 217 214 221 216 220 236 237 217 233 239 253 227 215 239 233 207 207 212 250 242 157 164 182 152 178 178 161 183 160 174 178 133 182 131 146 144 151 154 166 163 169 168 169
345 343 342 341 339 338 336 333 331 330 328 326 327 325 323 321 318 316 315 314 312 312 307 305 300 296 296 285 270 285 274 267 30 114 148 159 163 154 175 175 191 202 212 213 222 224 224 220 227 222 231 228 248 256 236 245 224 218 237 243 243 226 219 225 229 194 177 182 182 174 175 161 195 135 188 169 128 165 149 153 147 154 162 168 167 172 170 172
344 343 342 340 338 338 336 333 330 329 327 327 326 323 322 318 317 315 313 311 310 309 304 298 292 276 261 246 263 267 284 39 236 237 206 170 170 180 194 204 178 210 218 213 216 222 221 225 228 221 247 263 249 237 246 224 265 178 212 226 238 234 236 220 231 189 186 191 180 193 167 171 181 172 165 165 135 172 154 157 148 161 166 169 169 171 172 174
343 342 341 339 338 337 335 333 330 328 327 326 323 322 320 318 315 314 311 308 308 306 300 285 279 249 237 231 260 261 72 272 156 252 178 210 204 218 211 213 197 215 221 222 225 219 225 235 227 241 237 247 252 256 256 250 255 247 261 208 231 239 243 275 242 247 170 193 185 188 180 170 177 192 173 154 148 167 157 162 161 163 173 169 171 170 171 179
343 342 341 339 338 337 335 332 329 327 326 324 321 319 317 314 313 311 310 308 303 299 294 276 231 239 260 260 250 252 293 281 272 254 229 210 228 224 242 225 220 227 222 227 221 223 228 229 238 232 236 204 247 265 244 242 256 252 225 254 213 223 234 217 236 201 176 184 187 177 185 182 176 204 176 152 153 166 168 161 170 168 171 173 172 170 173 182
343 342 340 338 337 336 333 330 327 325 323 321 319 316 313 311 310 309 309 303 297 292 287 254 227 236 260 258 240 246 254 269 270 253 263 226 233 236 233 229 229 231 238 238 232 220 224 232 233 239 242 249 226 227 34 256 225 240 251 250 239 224 224 218 223 199 175 155 188 182 204 189 190 195 207 151 161 169 170 169 174 174 176 174 177 173 175 183
343 341 339 338 336 332 329 327 325 322 320 320 318 314 311 309 307 307 303 293 293 275 265 240 236 232 244 256 278 285 283 274 285 262 234 239 234 231 226 224 225 227 229 245 248 240 220 220 231 240 249 244 245 240 249 243 248 237 227 221 243 224 229 188 211 167 193 143 199 185 219 202 196 194 198 159 167 177 172 173 178 179 180 177 179 178 179 184
342 340 338 336 333 330 328 325 323 321 319 318 315 310 308 305 304 301 295 283 263 267 236 232 229 242 228 257 253 222 70 279 252 229 221 211 216 224 221 211 215 216 221 228 237 238 233 215 223 228 231 243 261 267 256 241 218 225 233 220 219 233 210 182 190 165 209 144 202 187 229 266 177 178 185 163 176 180 177 177 180 181 179 180 183 181 181 185
342 339 336 333 331 330 327 325 323 320 318 317 313 308 303 299 300 298 288 295 196 220 219 225 211 239 292 282 33 100 214 206 202 204 183 237 197 226 200 202 202 205 207 214 226 218 216 215 220 216 227 223 232 235 243 229 226 214 228 224 209 209 209 178 175 168 211 154 199 213 171 247 167 171 167 168 182 186 180 183 183 183 184 181 184 187 181 183
340 336 332 330 331 328 326 324 322 321 319 316 313 305 300 295 290 282 291 237 189 211 223 263 215 204 264 65 326 233 202 218 173 185 160 244 200 234 178 191 192 194 198 194 211 199 197 214 200 227 230 233 211 222 232 230 219 218 204 246 227 214 200 204 168 194 200 179 192 206 220 20 284 155 160 175 190 186 187 189 185 186 185 183 185 190 186 188
339 334 330 329 328 329 325 323 322 321 319 315 313 300 293 294 293 281 228 223 217 213 235 250 270 266 245 247 254 241 209 173 191 166 191 155 212 223 213 192 189 191 188 178 200 203 186 209 199 220 207 218 217 210 224 222 223 211 203 214 219 224 209 194 182 175 210 175 213 195 219 167 225 166 163 181 192 193 192 192 191 188 189 187 189 193 190 191
337 333 330 327 326 326 324 321 320 321 320 316 302 283 263 262 248 233 241 181 196 190 215 184 199 195 65 105 203 267 200 155 192 183 183 189 188 222 207 215 199 189 192 200 175 206 177 213 203 218 214 206 214 217 216 229 227 234 205 216 223 229 210 194 183 176 203 184 216 200 209 215 171 173 174 178 198 196 197 195 194 193 190 188 192 194 194 193
335 333 330 327 326 325 323 320 317 318 323 322 325 326 234 231 193 186 210 217 231 253 285 268 198 254 287 289 247 206 215 135 210 196 243 245 231 193 207 207 203 202 203 207 169 205 172 207 206 211 213 209 210 217 222 225 237 235 235 211 220 228 228 207 184 172 187 210 211 208 216 220 198 175 185 188 188 201 203 201 202 196 193 191 195 197 198 195
334 333 330 328 326 325 322 319 317 316 317 306 299 294 334 349 324 321 345 271 245 246 258 267 257 251 257 274 282 231 217 200 213 231 231 208 216 194 197 201 204 205 211 209 198 185 198 214 216 213 216 215 209 215 221 228 237 246 240 233 219 224 232 197 197 173 177 224 199 218 211 218 221 182 186 191 200 200 201 207 206 204 195 194 195 198 199 197
334 332 329 329 327 325 321 319 316 314 309 279 273 304 314 25 349 336 312 290 269 262 254 251 254 255 252 251 253 261 248 259 221 214 223 197 190 213 171 205 204 211 203 209 208 185 207 217 216 214 213 219 219 213 222 227 231 236 247 237 230 222 238 202 182 166 173 201 227 211 217 210 215 209 179 190 203 206 205 204 206 208 205 197 195 200 198 200
333 331 330 327 327 324 320 319 315 312 303 266 267 298 334 0 339 334 300 276 276 258 254 249 245 244 245 243 241 223 241 229 234 211 204 192 192 216 183 201 208 213 207 204 211 195 209 216 215 213 211 216 220 219 216 224 233 233 230 237 232 216 223 190 159 156 181 201 217 221 226 214 217 209 201 192 197 204 211 204 204 207 211 205 199 199 200 200
331 331 328 328 326 324 319 317 311 293 238 283 291 282 337 322 346 334 311 274 291 279 240 230 228 234 236 232 209 215 218 228 229 225 192 194 209 198 222 200 214 212 216 204 217 214 216 214 207 213 212 212 220 216 218 216 222 230 241 225 236 229 217 216 177 185 201 204 228 226 229 231 219 209 208 209 203 201 200 209 207 207 208 211 206 202 202 201
329 329 328 326 328 323 319 315 298 345 331 295 251 41 12 324 331 341 310 279 238 255 229 236 216 222 230 209 163 204 210 234 230 228 192 196 203 194 217 203 222 214 220 209 214 228 223 214 199 211 212 213 217 219 216 218 222 221 229 242 233 231 231 221 177 175 194 217 211 220 233 224 213 219 217 205 204 207 201 206 206 207 211 207 212 207 202 203
327 325 328 326 326 330 313 295 31 340 310 300 36 54 1 317 339 323 297 275 279 280 116 217 160 199 187 180 177 210 214 231 219 218 196 195 208 210 191 217 204 221 214 220 215 225 232 204 211 205 212 212 216 222 216 217 227 225 213 225 242 235 231 239 203 193 211 217 201 208 232 232 218 221 219 217 204 204 201 212 208 203 217 216 213 211 203 201
323 322 324 325 323 336 336 340 340 316 299 98 16 355 325 319 354 306 271 242 265 200 177 89 190 110 225 175 180 183 212 214 186 199 198 182 209 202 220 208 192 237 222 221 216 218 219 219 213 212 208 212 211 217 217 216 223 228 223 207 226 243 239 244 231 208 223 217 225 224 231 239 230 219 218 219 218 205 206 205 212 203 203 221 217 218 207 202
321 318 320 322 317 320 280 292 303 301 305 2 334 330 316 324 305 265 253 296 266 132 160 164 313 115 233 160 183 188 13 101 165 181 203 175 213 189 228 213 210 205 218 212 226 201 208 216 218 206 216 209 216 214 209 214 220 227 224 235 211 220 240 248 248 219 222 223 226 220 221 236 234 233 223 216 220 212 204 209 204 216 212 212 219 233 227 204
317 315 315 320 317 300 276 247 277 272 291 325 317 316 312 302 280 278 267 258 79 192 41 155 135 185 200 169 190 210 177 185 260 150 190 183 205 214 206 229 221 214 216 223 232 214 209 222 214 210 211 220 217 210 209 209 220 222 241 236 248 224 221 236 245 237 219 222 230 220 224 235 238 230 233 213 229 211 204 206 210 209 221 223 225 225 229 209
314 312 312 317 318 292 290 237 242 259 287 293 305 294 295 278 248 228 215 248 175 229 171 102 189 175 183 177 197 203 225 198 220 137 180 191 189 225 231 226 234 220 220 220 236 238 226 200 233 208 216 224 218 214 213 218 224 227 225 241 237 234 231 218 230 243 235 228 227 229 221 227 239 221 222 227 212 227 209 192 209 207 205 211 217 225 234 220
312 309 307 314 298 309 300 274 267 253 248 274 292 288 273 250 236 228 233 247 230 246 129 149 185 165 181 193 192 192 214 211 187 175 180 190 191 206 213 209 229 236 222 223 219 227 240 191 214 222 214 220 222 218 218 220 218 218 221 224 236 242 252 257 230 230 243 236 221 216 223 213 235 223 222 224 218 215 219 211 212 207 203 206 209 203 216 240
310 307 304 306 281 277 253 261 23 341 335 300 306 278 235 230 216 227 226 90 266 170 193 175 192 179 186 200 212 181 200 201 194 187 190 187 190 194 201 215 185 208 213 210 213 205 228 226 204 223 212 219 209 227 211 210 211 214 216 222 221 218 222 229 226 222 225 238 233 229 222 229 230 243 246 221 227 209 203 212 221 218 203 206 204 202 199 214
309 305 303 288 274 229 234 252 288 292 302 283 277 249 225 229 235 210 237 192 236 129 188 209 178 190 191 196 220 189 194 208 184 193 204 192 211 197 204 217 192 212 213 197 217 196 217 229 221 211 217 207 220 213 210 206 204 208 207 216 218 217 218 227 225 235 238 226 235 241 226 239 237 227 230 243 223 218 202 206 221 233 206 187 198 199 192 206
307 306 302 283 274 266 262 249 251 263 257 255 242 218 232 232 233 205 223 222 239 169 335 211 189 199 200 210 203 199 190 210 189 192 197 198 207 203 203 212 217 201 239 200 211 201 207 201 218 202 211 194 213 223 217 215 200 212 209 218 223 214 220 217 218 219 225 242 226 232 236 232 228 228 228 218 228 221 197 212 216 225 236 213 195 185 188 199
308 298 278 274 260 246 229 231 236 231 237 229 218 221 217 228 232 224 222 225 235 260 241 224 221 197 208 218 214 204 221 193 211 199 199 212 201 217 200 204 210 221 206 237 195 220 219 230 206 200 211 198 210 215 222 217 214 212 209 218 217 214 218 239 222 230 227 224 235 220 236 222 235 203 214 230 213 218 219 221 220 226 226 218 218 177 185 202
301 301 306 280 268 243 196 198 211 210 217 218 221 219 226 220 222 215 249 242 241 236 232 207 228 214 221 214 214 235 190 252 183 212 209 212 216 212 213 202 206 207 209 218 189 213 209 226 207 188 204 213 209 209 215 221 218 192 206 217 218 213 224 235 244 237 240 238 237 239 238 227 235 240 228 215 229 231 215 220 224 230 230 204 209 193 178 197
313 310 297 293 284 266 167 187 193 207 220 231 227 232 231 236 240 252 227 242 254 246 238 236 201 224 210 216 210 209 193 201 227 201 220 206 220 218 211 213 204 202 218 218 219 224 231 216 200 201 196 210 210 208 221 218 233 210 208 218 221 223 231 231 230 227 236 237 235 228 233 236 224 227 207 230 216 219 224 226 234 234 238 212 193 216 196 202
311 298 284 271 257 205 149 180 203 209 229 231 234 244 247 246 230 244 263 264 246 253 263 233 236 216 223 226 215 205 200 205 202 212 231 203 235 202 215 218 199 211 204 216 246 191 219 248 195 203 212 196 207 206 215 227 223 236 229 198 218 197 214 218 230 227 226 230 242 229 240 246 233 223 192 226 224 208 218 222 216 215 228 227 195 203 209 193
290 288 294 69 117 154 153 176 217 224 229 234 239 244 236 256 265 246 240 254 267 269 238 245 256 211 236 227 230 221 203 205 204 216 216 208 234 185 216 207 202 201 205 207 219 242 192 233 222 190 207 180 197 201 216 207 217 228 242 234 211 233 215 213 217 235 235 242 232 231 236 241 232 238 206 221 231 216 216 223 222 225 228 226 199 192 192 184
302 314 285 108 133 124 147 218 237 236 237 238 240 245 253 245 240 254 263 258 245 236 245 252 232 256 227 238 238 229 219 225 206 217 220 188 234 196 214 193 221 189 205 204 218 221 224 188 246 185 183 177 203 198 214 207 200 206 218 230 217 212 228 228 221 224 225 235 237 237 232 230 236 235 211 214 232 214 220 223 213 216 228 222 201 204 174 174
309 276 269 155 150 144 210 240 239 235 240 247 253 258 250 247 251 241 241 247 257 259 259 240 251 237 249 236 229 243 242 222 216 214 215 213 217 188 231 210 203 208 190 203 215 204 230 189 216 218 181 201 213 206 216 219 213 213 213 218 226 216 203 221 228 213 220 230 228 234 239 239 228 237 235 211 230 232 206 220 202 206 220 241 239 194 179 194
289 271 264 117 226 209 262 264 243 241 250 244 241 240 244 259 266 264 257 236 238 246 235 259 256 260 252 251 260 230 246 247 211 223 218 223 201 234 175 219 198 217 189 203 205 202 223 216 206 229 206 201 216 216 206 224 230 225 215 218 219 233 226 217 226 218 224 228 233 238 251 233 233 225 232 218 201 234 213 195 228 221 225 232 232 228 168 178
278 264 296 306 300 283 263 256 257 252 245 249 256 254 261 259 253 246 249 253 258 231 240 238 237 244 246 258 241 248 245 243 234 221 229 216 232 193 158 200 219 220 207 196 205 204 196 234 207 223 244 221 204 220 218 207 226 231 224 222 216 221 229 231 226 228 232 222 223 229 239 234 227 240 229 203 205 241 239 207 209 215 218 223 243 168 115 175
296 295 290 273 267 243 242 243 248 244 244 246 246 255 251 251 246 246 246 247 242 242 238 236 238 236 247 233 248 249 237 248 223 236 222 218 226 208 188 197 201 227 215 186 210 175 214 198 238 201 211 238 220 196 223 209 208 225 224 218 220 219 225 231 231 223 232 227 226 225 236 225 217 244 230 211 186 214 233 241 228 228 224 226 239 121 172 206
298 278 256 251 237 231 238 241 252 263 261 260 256 243 234 235 243 252 256 246 237 248 252 242 243 238 228 236 240 239 245 244 247 225 253 230 229 205 204 185 185 226 214 14 349 152 212 188 200 220 203 206 204 202 200 203 204 210 227 227 217 219 222 221 223 226 236 227 231 232 237 229 220 220 218 207 196 194 213 227 221 227 237 227 243 173 178 192
294 297 308 292 241 215 237 260 274 279 282 281 278 269 273 261 240 229 234 245 258 257 247 257 249 236 240 223 229 235 234 233 242 235 216 232 235 212 223 216 209 227 35 23 299 226 244 220 200 218 229 213 220 221 202 213 205 213 212 226 229 223 229 227 226 230 234 215 231 240 249 238 225 221 198 204 210 217 212 235 248 207 203 214 230 194 153 173
293 274 286 280 308 274 251 246 264 303 306 327 306 310 275 268 262 264 257 255 226 238 257 250 245 242 228 231 228 226 230 232 227 239 240 233 224 230 209 223 209 223 73 234 215 244 237 231 219 208 225 237 227 223 222 203 224 214 217 216 224 231 221 224 222 228 235 239 229 229 232 235 244 246 234 204 202 217 214 214 212 240 226 215 188 172 189 181
262 266 270 292 291 288 284 264 339 323 312 309 308 315 303 299 287 272 295 270 261 235 233 236 254 252 251 234 228 233 219 228 227 225 229 238 250 221 224 206 221 185 151 229 222 231 230 233 229 215 209 226 245 244 223 227 231 233 215 220 223 225 234 227 225 230 227 232 240 225 218 224 232 239 242 236 215 205 199 220 227 217 238 239 224 183 197 201
274 283 279 295 275 278 273 294 303 300 294 296 296 295 290 285 282 281 288 308 313 296 250 241 231 237 248 254 239 225 225 220 218 227 226 222 227 238 225 186 208 217 207 223 219 218 230 230 231 225 225 217 224 238 244 232 224 233 235 218 220 228 231 239 242 231 231 238 239 239 235 231 226 233 239 242 244 229 210 211 227 240 240 248 232 216 202 199
271 288 296 295 276 275 281 280 272 273 269 264 261 264 278 277 279 279 271 280 322 311 316 267 260 274 271 253 244 238 224 231 236 218 214 242 221 221 250 238 203 205 211 208 216 206 226 216 227 234 238 232 225 229 234 241 247 233 226 236 236 224 223 227 236 242 239 238 240 240 239 243 237 231 234 234 242 250 240 215 215 214 223 239 239 236 240 237
251 264 286 286 284 275 275 279 273 266 263 249 247 252 259 259 266 268 278 291 280 285 297 337 342 328 310 315 293 238 236 236 237 248 245 214 229 219 231 212 241 224 200 209 208 205 203 232 214 227 240 234 227 228 228 230 235 245 243 231 228 235 242 231 226 225 235 238 239 244 242 235 232 239 229 230 236 240 247 249 220 209 217 217 234 241 235 242
288 289 258 262 273 275 276 268 267 273 259 254 250 255 253 251 256 269 283 275 273 268 293 357 336 329 318 313 314 346 346 341 333 324 302 283 259 233 214 224 218 233 226 213 205 216 201 215 217 212 228 235 232 235 241 241 245 242 236 235 241 236 225 236 241 239 232 234 238 234 240 246 243 240 244 222 230 235 242 243 245 229 209 217 227 235 234 236